Terminal Aerodrome Forecast
Issued by NWS Blacksburg, VA

Current Version | Previous Version | Text Only | Print | Product List | Glossary Off
Versions: 1 2 3 4 5 6 7 8 9 10 11 12 13 14 15 16 17 18 19 20 21 22 23 24 25 26 27 28 29 30 31 32 33 34 35 36 37 38

000
FTUS41 KRNK 200538
TAFBLF
TAF
KBLF 200538Z 2006/2106 30007KT P6SM SCT045
     FM201500 30009KT P6SM SKC
     FM210000 34003KT P6SM OVC250=

USA.gov is the U.S. government's official web portal to all federal, state and local government web resources and services.